Home   Weather   Medford   Past weeks

Flag for USA Past Weather in Medford, Oregon, USA — Yesterday and Last 2 Weeks

Now
72 °F

Sunny.


Feels Like: 77 °F
Forecast: 58 / 89 °F
Wind: No wind

Location: Rogue Valley International Airport

Current Time: Sep 27, 2016 at 12:00:04 PM

Latest Report: Sep 27, 2016 at 10:53 AM


Visibility: 10 mi

Pressure: 30.04 "Hg

Humidity: 46%

Dew Point: 50 °F

Location of MedfordLocation

Past Weather in Medford — Graph

°F

Medford Temperature Yesterday

Maximum temperature yesterday: 98 °F (at 3:53 PM)
Minimum temperature yesterday: 54 °F (at 6:53 AM)
Average temperature yesterday: 75 °F

High & Low Weather Summary for the Past Weeks

 TemperatureHumidityPressure
High98 °F (Sep 26, 3:53 PM)90% (Sep 23, 10:53 PM)30.35 "Hg (Sep 23, 10:53 PM)
Low44 °F (Sep 23, 6:53 AM)9% (Sep 16, 4:53 PM)29.80 "Hg (Sep 13, 4:53 PM)
Average66 °F46%30.06 "Hg
* Reported Sep 12 9:53 AM — Sep 27 9:53 AM, Medford, Weather by CustomWeather, © 2016

Note: Actual official high and low records may vary slightly from our data, if they occured in-between our weather recording intervals... More about our weather records

Advertising

Medford Weather History for the Previous 24 Hours

Scroll right to see more
 ConditionsComfort  
Time TempWeatherWind HumidityBarometerVisibility
9:53 AM
Tue, Sep 27
68 °FSunny.No wind53%30.06 "Hg10 mi
8:53 AM62 °FSunny.No wind65%30.07 "Hg10 mi
7:53 AM58 °FSunny.No wind75%30.06 "Hg10 mi
6:53 AM55 °FClear.No wind77%30.04 "Hg10 mi
5:53 AM58 °FClear.No wind75%30.03 "Hg10 mi
4:53 AM58 °FClear.No wind70%30.03 "Hg10 mi
3:53 AM61 °FClear.No wind67%30.02 "Hg10 mi
2:53 AM63 °FClear.No wind63%30.02 "Hg10 mi
1:53 AM64 °FClear.5 mph61%30.02 "Hg10 mi
12:53 AM68 °FClear.6 mph55%30.01 "Hg10 mi
11:53 PM
Mon, Sep 26
72 °FClear.No wind46%30.01 "Hg10 mi
10:53 PM73 °FClear.No wind43%30.01 "Hg10 mi
9:53 PM76 °FClear.6 mph39%30.00 "Hg10 mi
8:53 PM80 °FClear.No wind32%29.98 "Hg10 mi
7:53 PM83 °FClear.3 mph28%29.96 "Hg10 mi
6:53 PM92 °FSunny.3 mph18%29.92 "Hg10 mi
5:53 PM97 °FSunny.7 mph14%29.91 "Hg10 mi
4:53 PM98 °FSunny.8 mph12%29.93 "Hg10 mi
3:53 PM98 °FSunny.9 mph12%29.94 "Hg10 mi
2:53 PM97 °FSunny.3 mph14%29.96 "Hg10 mi
1:53 PM93 °FSunny.3 mph17%29.98 "Hg10 mi
12:53 PM87 °FSunny.No wind22%30.01 "Hg10 mi
Weather by CustomWeather, © 2016

See weather overviewHow to use our weather pages